Location: 5810 Zion Rd, Cleves, OH 45002, USA
(39.1922°N, 84.7113°W)
Time: 10:46:55
(UTC-05:00)

Vanguard 3 - Pass Details

Date: 18 December 2019
Orbit: 507 x 3264 km, 33.4° (Epoch: 29 January)

Event Time Altitude Azimuth Distance (km) Brightness Sun altitude
Rises 10:41:15 0° 272° (W) 4,002 10.4 22.0°
Reaches altitude 10° 10:43:39 10° 266° (W) 3,322 10.1 22.2°
Maximum altitude 10:51:55 46° 196° (SSW) 2,398 10.5 22.9°
Drops below altitude 10° 11:05:54 10° 131° (SE) 5,494 12.6 24.0°
Sets 11:11:12 0° 126° (SE) 6,832 12.8 24.4°
